{"data":{"norad_id":55109,"intl_designator":"2023-001DE","name":"ASTROCAST-0402","alt_names":[],"object_type":"PAYLOAD","status":"ACTIVE","operator":null,"country":"SWTZ","launch_date":"2023-01-03","launch_site_code":"AFETR","launch_vehicle":null,"mission":null,"orbit_class":"UNKNOWN","rcs_meters":null,"size_class":null,"mass_kg":null,"dimensions":null,"purposes":[],"wikipedia_slug":null,"has_3d_model":false,"image_url":null,"decayed_at":null,"tle_current":{"epoch":"2026-05-25T04:37:43.631904Z","epoch_age_seconds":51746,"freshness":"FRESH","line1":"1 55109U 23001DE  26145.19286611  .00010064  00000+0  37074-3 0  9992","line2":"2 55109  97.5565 238.0575 0003613 341.3900  18.7206 15.28028492141025","mean_motion":15.28028492,"eccentricity":0.0003613,"inclination_deg":97.5565,"raan_deg":238.0575,"arg_perigee_deg":341.39,"mean_anomaly_deg":18.7206,"bstar":0.00037074,"rev_number":14102,"period_min":94.239080458193,"perigee_km":479.22801668332,"apogee_km":484.18493958062,"semimajor_km":6859.843478132,"source":"CELESTRAK","updated_at":"2026-05-25T13:37:58.816189Z"}}}